When you browse on this site, cookies collect data to enhance your experience and personalize the content and advertising you see.
Visit our Privacy Policy to learn more. By continuing to use the site, you agree to this use of cookies and data.
  • In United Kingdom
  • List of Countries
  • For 7 days
  • Water Temperature
  • Weather Map
  • Weather Widgets
  • user-avatar
    Login

    Hourly Weather Filipestii de Padure

    Today, 16 September, Monday

    Time Temperature Precipitation Wind Pressure Humidity
    00:00 +16°C° 0 mm 2 mps 739 mmHg 55%
    01:00 +16°C° 0 mm 2 mps 739 mmHg 56%
    02:00 +16°C° 0 mm 2 mps 738 mmHg 58%
    03:00 +15°C° 0 mm 2 mps 738 mmHg 59%
    04:00 +15°C° 0 mm 2 mps 738 mmHg 60%
    05:00 +15°C° 0 mm 2 mps 737 mmHg 61%
    06:00 +16°C° 0 mm 2 mps 737 mmHg 56%
    07:00 +18°C° 0 mm 2 mps 737 mmHg 51%
    08:00 +20°C° 0 mm 2 mps 737 mmHg 45%
    09:00 +23°C° 0 mm 1 mps 737 mmHg 39%
    10:00 +26°C° 0 mm 1 mps 737 mmHg 33%
    11:00 +29°C° 0 mm 1 mps 736 mmHg 26%
    12:00 +30°C° 0 mm 1 mps 736 mmHg 24%
    13:00 +31°C° 0 mm 1 mps 736 mmHg 22%
    14:00 +32°C° 0 mm 1 mps 735 mmHg 20%
    15:00 +31°C° 0 mm 1 mps 735 mmHg 21%
    16:00 +30°C° 0 mm 1 mps 734 mmHg 22%
    17:00 +30°C° 0 mm 1 mps 734 mmHg 23%
    18:00 +27°C° 0 mm 1 mps 734 mmHg 28%
    19:00 +24°C° 0 mm 2 mps 734 mmHg 33%
    20:00 +21°C° 0 mm 2 mps 734 mmHg 38%
    21:00 +20°C° 0 mm 2 mps 734 mmHg 39%
    22:00 +19°C° 0 mm 2 mps 734 mmHg 40%
    23:00 +19°C° 0 mm 2 mps 734 mmHg 41%

    Tomorrow, 17 September, Tuesday

    Time Temperature Precipitation Wind Pressure Humidity
    00:00 +19°C° 0 mm 2 mps 734 mmHg 41%
    01:00 +18°C° 0 mm 2 mps 734 mmHg 42%
    02:00 +18°C° 0 mm 2 mps 734 mmHg 43%
    03:00 +18°C° 0 mm 2 mps 733 mmHg 44%
    04:00 +17°C° 0 mm 2 mps 733 mmHg 46%
    05:00 +17°C° 0 mm 2 mps 733 mmHg 48%
    06:00 +20°C° 0 mm 1 mps 733 mmHg 45%
    07:00 +21°C° 0 mm 1 mps 733 mmHg 42%
    08:00 +23°C° 0 mm 1 mps 733 mmHg 39%
    09:00 +25°C° 0 mm 1 mps 733 mmHg 35%
    10:00 +27°C° 0 mm 1 mps 733 mmHg 31%
    11:00 +29°C° 0 mm 1 mps 733 mmHg 26%
    12:00 +30°C° 0 mm 2 mps 733 mmHg 26%
    13:00 +31°C° 0 mm 3 mps 733 mmHg 26%
    14:00 +33°C° 0 mm 4 mps 732 mmHg 25%
    15:00 +32°C° 0 mm 4 mps 732 mmHg 26%
    16:00 +30°C° 0 mm 4 mps 732 mmHg 27%
    17:00 +30°C° 0 mm 4 mps 732 mmHg 29%
    18:00 +27°C° 0 mm 4 mps 732 mmHg 35%
    19:00 +25°C° 0 mm 3 mps 732 mmHg 40%
    20:00 +21°C° 0 mm 2 mps 732 mmHg 46%
    21:00 +20°C° 0 mm 2 mps 732 mmHg 48%
    22:00 +20°C° 0 mm 2 mps 732 mmHg 50%
    23:00 +20°C° 0 mm 1 mps 732 mmHg 52%

    Day after tomorrow, 18 September, Wednesday

    Time Temperature Precipitation Wind Pressure Humidity
    00:00 +20°C° 0 mm 1 mps 731 mmHg 53%
    01:00 +19°C° 0 mm 1 mps 731 mmHg 55%
    02:00 +19°C° 0 mm 1 mps 731 mmHg 56%
    03:00 +19°C° 0 mm 1 mps 731 mmHg 56%
    04:00 +18°C° 0 mm 1 mps 731 mmHg 56%
    05:00 +17°C° 0 mm 2 mps 731 mmHg 56%
    06:00 +18°C° 0 mm 2 mps 732 mmHg 56%
    07:00 +19°C° 0 mm 2 mps 732 mmHg 55%
    08:00 +20°C° 0 mm 2 mps 732 mmHg 54%
    09:00 +20°C° 0 mm 2 mps 733 mmHg 53%
    10:00 +20°C° 0 mm 3 mps 734 mmHg 53%
    11:00 +20°C° 0 mm 3 mps 734 mmHg 53%
    12:00 +20°C° 0 mm 3 mps 735 mmHg 49%
    13:00 +20°C° 0 mm 2 mps 735 mmHg 45%
    14:00 +20°C° 0 mm 2 mps 735 mmHg 41%
    15:00 +21°C° 0 mm 2 mps 736 mmHg 39%
    16:00 +21°C° 0 mm 2 mps 736 mmHg 36%
    17:00 +21°C° 0 mm 2 mps 736 mmHg 33%
    18:00 +19°C° 0 mm 3 mps 737 mmHg 36%
    19:00 +17°C° 0 mm 3 mps 737 mmHg 38%
    20:00 +14°C° 0 mm 3 mps 738 mmHg 40%
    21:00 +13°C° 0 mm 3 mps 738 mmHg 40%
    22:00 +13°C° 0 mm 2 mps 738 mmHg 40%
    23:00 +12°C° 0 mm 2 mps 739 mmHg 40%

    19 September, Thursday

    Time Temperature Precipitation Wind Pressure Humidity
    00:00 +10°C° 0 mm 2 mps 739 mmHg 43%
    01:00 +9°C° 0 mm 2 mps 739 mmHg 46%
    02:00 +9°C° 0 mm 2 mps 739 mmHg 48%
    03:00 +8°C° 0 mm 2 mps 739 mmHg 50%
    04:00 +8°C° 0 mm 2 mps 739 mmHg 52%
    05:00 +8°C° 0 mm 2 mps 739 mmHg 54%
    06:00 +9°C° 0 mm 2 mps 739 mmHg 50%
    07:00 +12°C° 0 mm 2 mps 739 mmHg 46%
    08:00 +13°C° 0 mm 2 mps 739 mmHg 42%
    09:00 +15°C° 0 mm 2 mps 739 mmHg 39%
    10:00 +16°C° 0 mm 2 mps 739 mmHg 36%
    11:00 +18°C° 0 mm 2 mps 739 mmHg 33%
    12:00 +19°C° 0 mm 2 mps 738 mmHg 32%
    13:00 +20°C° 0 mm 2 mps 738 mmHg 30%
    14:00 +21°C° 0 mm 2 mps 737 mmHg 28%
    15:00 +22°C° 0 mm 1 mps 737 mmHg 29%
    16:00 +22°C° 0 mm 1 mps 737 mmHg 29%
    17:00 +22°C° 0 mm 1 mps 736 mmHg 29%
    18:00 +19°C° 0 mm 1 mps 737 mmHg 32%
    19:00 +16°C° 0 mm 1 mps 737 mmHg 34%
    20:00 +14°C° 0 mm 1 mps 737 mmHg 37%
    21:00 +14°C° 0 mm 2 mps 737 mmHg 37%
    22:00 +13°C° 0 mm 2 mps 738 mmHg 36%
    23:00 +12°C° 0 mm 3 mps 738 mmHg 35%

    20 September, Friday

    Time Temperature Precipitation Wind Pressure Humidity
    00:00 +11°C° 0 mm 3 mps 738 mmHg 39%
    01:00 +10°C° 0 mm 3 mps 738 mmHg 43%
    02:00 +9°C° 0 mm 3 mps 738 mmHg 46%
    03:00 +9°C° 0 mm 3 mps 738 mmHg 48%
    04:00 +8°C° 0 mm 2 mps 738 mmHg 50%
    05:00 +8°C° 0 mm 2 mps 738 mmHg 51%
    06:00 +9°C° 0 mm 2 mps 739 mmHg 48%
    07:00 +10°C° 0 mm 2 mps 739 mmHg 44%
    08:00 +13°C° 0 mm 2 mps 739 mmHg 40%
    09:00 +14°C° 0 mm 2 mps 739 mmHg 36%
    10:00 +16°C° 0 mm 2 mps 740 mmHg 31%
    11:00 +18°C° 0 mm 2 mps 740 mmHg 27%
    12:00 +18°C° 0 mm 2 mps 740 mmHg 25%
    13:00 +19°C° 0 mm 2 mps 740 mmHg 23%
    14:00 +19°C° 0 mm 2 mps 739 mmHg 21%
    15:00 +19°C° 0 mm 3 mps 739 mmHg 21%
    16:00 +18°C° 0 mm 3 mps 739 mmHg 21%
    17:00 +18°C° 0 mm 4 mps 739 mmHg 22%
    18:00 +15°C° 0 mm 4 mps 740 mmHg 24%
    19:00 +13°C° 0 mm 3 mps 740 mmHg 27%
    20:00 +11°C° 0 mm 3 mps 741 mmHg 29%
    21:00 +10°C° 0 mm 3 mps 741 mmHg 34%
    22:00 +9°C° 0 mm 2 mps 742 mmHg 38%
    23:00 +8°C° 0 mm 2 mps 742 mmHg 43%

    21 September, Saturday

    Time Temperature Precipitation Wind Pressure Humidity
    00:00 +7°C° 0 mm 2 mps 742 mmHg 45%
    01:00 +7°C° 0 mm 2 mps 742 mmHg 48%
    02:00 +6°C° 0 mm 2 mps 742 mmHg 50%
    03:00 +7°C° 0 mm 1 mps 742 mmHg 51%
    04:00 +7°C° 0 mm 1 mps 743 mmHg 51%
    05:00 +6°C° 0 mm 1 mps 743 mmHg 52%
    06:00 +8°C° 0 mm 1 mps 743 mmHg 48%
    07:00 +10°C° 0 mm 1 mps 743 mmHg 44%
    08:00 +11°C° 0 mm 1 mps 743 mmHg 40%
    09:00 +13°C° 0 mm 2 mps 743 mmHg 37%
    10:00 +14°C° 0 mm 2 mps 743 mmHg 33%
    11:00 +16°C° 0 mm 3 mps 743 mmHg 30%
    12:00 +17°C° 0 mm 3 mps 742 mmHg 28%
    13:00 +18°C° 0 mm 3 mps 742 mmHg 26%
    14:00 +19°C° 0 mm 3 mps 741 mmHg 24%
    15:00 +19°C° 0 mm 2 mps 741 mmHg 25%
    16:00 +19°C° 0 mm 2 mps 741 mmHg 25%
    17:00 +18°C° 0 mm 2 mps 741 mmHg 26%
    18:00 +16°C° 0 mm 2 mps 741 mmHg 30%
    19:00 +14°C° 0 mm 2 mps 741 mmHg 34%
    20:00 +12°C° 0 mm 2 mps 741 mmHg 39%
    21:00 +10°C° 0 mm 2 mps 742 mmHg 40%
    22:00 +10°C° 0 mm 2 mps 742 mmHg 41%
    23:00 +10°C° 0 mm 2 mps 742 mmHg 42%
    Show more